Regional Weather Roundup
Issued by NWS Boston, MA

Current Version | Previous Version | Graphics & Text | Print | Product List | Glossary On
Versions: 1 2 3 4 5 6 7 8 9 10 11 12 13 14 15 16 17 18 19 20 21 22 23 24 25 26 27 28 29 30 31 32 33 34 35 36 37 38 39 40 41 42 43 44 45 46 47 48 49 50
817
ASUS41 KBOX 151610
RWRBOX

REGIONAL WEATHER ROUNDUP
NATIONAL WEATHER SERVICE BOSTON/NORTON MA
1200 PM EDT SUN SEP 15 2019

NOTE:  "FAIR" INDICATES FEW OR NO CLOUDS BELOW 12,000 FEET WITH NO
SIGNIFICANT WEATHER AND/OR OBSTRUCTIONS TO VISIBILITY.

MAZALL-151700-
EASTERN MASSACHUSETTS

CITY           SKY/WX    TMP DP  RH WIND       PRES   REMARKS
BOSTON         FAIR      78  52  40 W6        30.10F
BEVERLY        FAIR      74  56  53 W12       30.09F
LAWRENCE       FAIR      73  56  54 W10       30.11F
BEDFORD        FAIR      77  55  46 VRB6      30.10S
BLUE HILL        N/A     73  56  54 W6        30.11F
NORWOOD        FAIR      76  57  51 W6        30.11S
MARSHFIELD     FAIR      75  59  57 VRB7      30.10F
PLYMOUTH       FAIR      74  58  57 W9        30.11F
TAUNTON        FAIR      77  57  50 VRB3      30.11F
NEW BEDFORD    FAIR      76  57  51 W8        30.11F
$$

MAZALL-151700-
CAPE COD AND THE ISLANDS

CITY           SKY/WX    TMP DP  RH WIND       PRES   REMARKS
FALMOUTH       SUNNY     75  59  57 W7        30.11F
HYANNIS        PTSUNNY   74  63  68 VRB6      30.09F
CHATHAM        FAIR      75  62  64 VRB3      30.12F
PROVINCETOWN   FAIR      72  63  73 W8        30.11F
NANTUCKET      PTSUNNY   73  69  87 SW9       30.12F
MARTHAS VNYRD  FAIR      77  62  59 NW7       30.11F
$$

MAZALL-151700-
CENTRAL AND WESTERN MASSACHUSETTS

CITY           SKY/WX    TMP DP  RH WIND       PRES   REMARKS
WORCESTER      FAIR      69  55  60 W9        30.15S
FITCHBURG      FAIR      74  53  48 VRB6      30.13F
ORANGE         FAIR      71  52  50 W12       30.14F
SPRINGFIELD    MOSUNNY   72  55  54 CALM      30.12F
WESTFIELD      FAIR      74  55  51 VRB3      30.13F
NORTH ADAMS    FAIR      71  52  50 VRB7G16   30.14F
PITTSFIELD     FAIR      69  53  56 W12G18    30.15F
$$

RIZALL-151700-
RHODE ISLAND

CITY           SKY/WX    TMP DP  RH WIND       PRES   REMARKS
PROVIDENCE     FAIR      76  57  51 VRB7      30.13F
NEWPORT        FAIR      74  61  63 W8        30.13S
BLOCK ISLAND   FAIR     N/A N/A N/A NW6       30.14F
SMITHFIELD     FAIR      73  60  63 VRB6      30.13F
WESTERLY       FAIR      77  61  57 NW6       30.14S
$$

CTZALL-151700-
CONNECTICUT

CITY           SKY/WX    TMP DP  RH WIND       PRES   REMARKS
BRADLEY INTL   FAIR      73  55  53 W6        30.13F
HARTFORD       FAIR      75  55  49 W7        30.13F
BRIDGEPORT     FAIR      74  61  63 S8        30.14F
DANBURY        FAIR      74  59  59 VRB6      30.17F
GROTON         FAIR      75  60  59 VRB5      30.13S
NEW HAVEN      FAIR      77  60  55 CALM      30.14F
CHESTER        FAIR      77  59  53 VRB5      30.15S
MERIDEN        FAIR      74  58  57 CALM      30.14F
WILLIMANTIC    FAIR      74  54  49 W6        30.15F
OXFORD         FAIR      71  59  65 W8        30.17F
$$

MEZ002-015-021-024-NHZ003-005-008-011-012-014-VTZ005-008-151700-
NORTHERN NEW ENGLAND

CITY           SKY/WX    TMP DP  RH WIND       PRES   REMARKS
PORTLAND ME    FAIR      73  52  47 W9G20     30.05F
BANGOR ME      PTSUNNY   70  51  51 W10G20    30.02F
CONCORD NH     FAIR      74  52  46 NW7       30.10F
MANCHESTER NH  FAIR      75  50  41 W8        30.08F
NASHUA NH      FAIR      74  54  49 W8        30.10F
PORTSMOUTH NH  MOSUNNY   73  54  50 W9        30.06F
JAFFREY NH     FAIR      70  49  47 VRB7      30.14F
KEENE NH       PTSUNNY   71  54  54 SW8G16    30.12F
BURLINGTON VT  PTSUNNY   69  47  45 VRB7      30.09F
MT. WASHINGTON NOT AVBL
$$

NYZ052-076-151700-
EASTERN NEW YORK

CITY           SKY/WX    TMP DP  RH WIND       PRES   REMARKS
ALBANY         PTSUNNY   72  55  55 W5        30.15F
NEW YORK CITY  PTSUNNY   77  60  55 VRB5      30.14F
$$

ANZALL-151700-
MARINE OBSERVATIONS

STATION/POSITION TIME  TEMP    WIND        PRES    VSBY  WAVE
                       AIR SEA DIR/SP/G                  HT/PER
                 (UTC) (F)     (DEG/KT/KT) (MB)    (MI)  (FT/S)
BOSTON BUOY      1550   66 65  250/  6/  8 1018.3F         2/ 8
BUZZARDS BAY     1500   68     280/  5/  6 1020.7F
NANTUCKET SOUND  1550   69 69  270/  8/ 12   N/A           1
MASS BAY-STELLWA 1504   65 63  240/  6/  8 1019.0F  1 7/8  2/ 8
ISLE OF SHOALS   1500   67     270/ 10/ 11 1018.5F
S OF BLOCK IS    1600      66                N/A           3/ 5
$$

......................KEY.........................
  SKY/WX - SKY CONDITION/PRESENT WEATHER
  TMP    - TEMPERATURE IN FAHRENHEIT
  DWPT   - DEWPOINT IN FAHRENHEIT
  RH     - RELATIVE HUMIDITY IN PERCENT
  WIND   - DIRECTION AND SPEED IN MPH
  PRES   - MEAN SEA LEVEL PRESSURE IN INCHES OF HG
  WCI    - WIND CHILL INDEX
  VSB    - VISIBILITY IN MILES
  HX     - HEAT INDEX
  TC     - TEMPERATURE IN CELSIUS
  VRB    - VARIABLE WIND DIRECTION
  N/A    - NOT AVAILABLE




USA.gov is the U.S. government's official web portal to all federal, state and local government web resources and services.